Погода в Кисамосе

Греция     35°29′39″N   23°39′12″E
темп.,
°C
ветер,
м/с
пор.,
м/с
влажн.,
%
обл.,
%
осадки,
мм/ч
давл.,
гПа
погр.,
м
11 мая, вт
вт1100:00+14в46285 0.0 1017171
03:00+13в35294 0.0 1016148
06:00+13в36485 0.0 1016274
09:00+16св57590 0.0 1015552
12:00+20св66450 0.0 1015694
15:00+20св66410 0.0 1015641
18:00+20св35290 0.0 1014412
21:00+16всв22303 0.0 101348
12 мая, ср
ср1200:00+15в22285 0.0 101348
03:00+15вюв23345 0.0 101243
06:00+15вюв33332 0.0 101144
09:00+21ссв212996 0.0 1012270
12:00+23сз3331100 0.0 1012676
15:00+24з564693 0.0 1011772
18:00+22з67433 0.0 1011546
21:00+17юз45590 0.0 1011106
13 мая, чт
чт1300:00+16юз57580 0.0 1011157
03:00+16юз58721 0.0 1010213
06:00+15юз57888 0.0 1010252
09:00+19зюз67615 0.0 1011594
12:00+22з68460 0.0 1011826
15:00+22зюз79506 0.0 1012863
18:00+20зюз78450 0.0 1012619
21:00+15юз57790 0.0 1013291
14 мая, пт
пт1400:00+15юз46808 0.0 1013252
03:00+15юз4679100 0.0 1013187
06:00+15юз45740 0.0 1014167
09:00+20зюз46510 0.0 1015485
12:00+22з56450 0.0 1016758
15:00+23з67460 0.0 1016750
18:00+22з56440 0.0 1015498
21:00+16юз34620 0.0 101697
15 мая, сб
сб1500:00+16юз34583 0.0 101675
03:00+17ююз34455 0.0 101584
06:00+17ююз3448100 0.0 101569
09:00+22зюз2438100 0.0 1014271
12:00+25з563553 0.0 1014899
15:00+26зюз68345 0.0 1013928
18:00+24зюз683696 0.0 1012593
21:00+19юз4748100 0.0 1012102